weather.gov     
National Weather Service

Regional Weather Roundup
NWS Homepage
This page is being discontinued on March 12, 2014.
The same data is available at this site. Please update your bookmarks.
Thank you, and we apologize for the inconvenience.
Please send an email to SR-SRH.Webmaster@noaa.gov with any concerns.


Current Version
Previous Version:    01  02  03  04  05  06  07  08  09  10  11  12  13  14  15  16  17  18  19  20  21  22  23  24  25  26  27  28  29  30  
   31  32  33  34  35  36  37  38  39  40  41  42  43  44  45  46  47  48  49  50  51  52  53  54  55  56  57  
[Printable]
287
ASUS43 KGRB 161310
RWRGRB

NORTH-CENTRAL AND NORTHEAST WISCONSIN REGIONAL WEATHER ROUNDUP
NATIONAL WEATHER SERVICE GREEN BAY WI
800 AM CDT TUE SEP 16 2014

WIZ005-009-010>012-018-019-161400-
NORTH CENTRAL WISCONSIN

CITY           SKY/WX    TMP DP  RH WIND       PRES   REMARKS
IRONWOOD       PTSUNNY   46  37  71 SW9       30.07F
MANITOWISH WTR MOSUNNY   39  37  93 SW6       30.12F
ARBOR VITAE    MOSUNNY   42  38  86 CALM      30.13F
EAGLE RIVER    SUNNY     39  38  96 W6        30.13S
LAND O LAKES   MOSUNNY   39  38  99 SW3       30.13S
RHINELANDER    SUNNY     41  37  86 W6        30.15F
PHILLIPS       SUNNY     40  37  87 SW3       30.15S
ANTIGO         SUNNY     38  37  96 CALM      30.17S
TOMAHAWK       SUNNY     39  38  97 CALM      30.16F
MERRILL        PTSUNNY   36  35  94 CALM      30.17F
$$

WIZ013-073-161400-
NORTHEAST WISCONSIN

CITY           SKY/WX    TMP DP  RH WIND       PRES   REMARKS
IRON MOUNTAIN  SUNNY     43  36  76 CALM      30.12F
MARINETTE      SUNNY     43  37  81 W3        30.14F
OCONTO           N/A     42  40  93 W5        30.16F
$$

WIZ017-030-035>037-045-161400-
CENTRAL WISCONSIN

CITY           SKY/WX    TMP DP  RH WIND       PRES   REMARKS
MEDFORD        SUNNY     40  38  90 W3        30.17F
WAUSAU         SUNNY     43  40  89 CALM      30.17F
MOSINEE        SUNNY     43  39  87 W6        30.19S
MARSHFIELD     SUNNY     43  40  89 W5        30.19S
WISC RAPIDS    SUNNY     41  39  93 CALM      30.21F
STEVENS POINT  SUNNY     37  36  96 CALM      30.20S
WAUPACA        SUNNY     45  43  91 W3        30.20S
SHAWANO        SUNNY     44  39  85 W6        30.18F
CLINTONVILLE   SUNNY     41  37  87 W5        30.18F
$$

WIZ038-039-048-051-161400-
FOX VALLEY

CITY           SKY/WX    TMP DP  RH WIND       PRES   REMARKS
NWS GREEN BAY  SUNNY     45  42  89 W7        30.18S
APPLETON       SUNNY     45  39  81 W10       30.19S
OSHKOSH        SUNNY     46  40  79 W5        30.19S
FOND DU LAC    SUNNY     43  40  89 S3        30.20S
$$

WIZ022-050-052-161400-
EAST CENTRAL WISCONSIN

CITY           SKY/WX    TMP DP  RH WIND       PRES   REMARKS
STURGEON BAY   SUNNY     46  41  81 SW6       30.16F
MANITOWOC      SUNNY     46  43  89 W5        30.18F
SHEBOYGAN      SUNNY     46  43  89 W5        30.19S
$$

LMZ563-521-522-541>543-161400-
LAKESHORE

STATION/POSITION TIME  TEMP    WIND        PRES    VSBY  WAVE
                       AIR SEA DIR/SP/G                  HT/PER
                 (UTC) (F)     (DEG/KT/KT) (MB)    (MI)  (FT/S)
SHEBOYGAN LKSHOR 1300   48 50  270/  8/  9 1022.6F
KEWAUNEE LKSHORE 1300   45     280/  6/  8 1020.7
NORTHPORT PIER   1300   52     280/  4/  6 1020.7S
N MID LAKE BUOY  1300   52 59  270/ 10/ 12 1020.6S         1/ 3
S GREEN BAY BUOY 1300   50     VRB 14/ 16  1022.0F
STURGEON BAY CG  1200   42     300/  4     1021.2      6
CHAMBERS ISLAND  1300   50     240/  2/  9 1021.0S
MENOMINEE LKSHOR 1300   44     250/  8/ 11 1021.4
$$




U.S. Dept. of Commerce
NOAA National Weather Service
1325 East West Highway
Silver Spring, MD 20910
E-mail: w-nws.webmaster@noaa.gov
Page last modified: May 16, 2007
NATIONAL WEATHER SERVICE: for Safety, for Work, for Fun - FOR LIFE